Flag for U.S.A. Weather past 2 weeks in Wainwright, Alaska, U.S.A.

Now
39 °F

Low clouds.


Feels Like: 33 °F
Forecast: 39 / 54 °F
Wind: 9 mph from South

Location: Wainwright Distant Early Warning

Current Time: Aug 27, 2014 at 7:45:28 AM

Latest Report: Aug 27, 2014 at 6:53 AM


Visibility: 10 mi

Pressure: 29.62 "Hg

Humidity: 89%

Dew point: 36 °F

Location of WainwrightLocation

Historic Weather in Wainwright — Graph

°F

Wainwright temperature yesterday

Maximum temperature yesterday: 41 °F (at 12:53 AM)
Minimum temperature yesterday: 37 °F (at 10:53 PM)
Average temperature yesterday: 40 °F

Past Weeks' High & Low Weather Summary

 TemperatureHumidityPressure
High55 °F (Aug 21, 7:53 PM)97% (Aug 18, 4:53 AM)30.12 "Hg (Aug 18, 4:53 AM)
Low34 °F (Aug 24, 1:53 AM)66% (Aug 13, 4:53 PM)29.51 "Hg (Aug 16, 7:53 PM)
Average42 °F85%29.86 "Hg
* Reported Aug 12 5:53 AM — Aug 27 5:53 AM, Wainwright, Weather by CustomWeather, © 2014

Note: Actual official high and low records may vary slightly from our data, if they occured in-between our weather recording intervals... More about our weather records

Advertising

Wainwright weather history for previous 24 hours

 ConditionsComfort  
Time TempWeatherWind HumidityBarometerVisibility
5:53 AM
Aug 27
39 °FFog.7 mph93%29.64 "Hg5 mi
4:53 AM39 °FFog.7 mph93%29.65 "Hg4 mi
3:53 AM38 °FFog.7 mph93%29.66 "Hg4 mi
2:53 AM38 °FLow clouds.3 mph93%29.67 "Hg10 mi
1:53 AM38 °FLow clouds.5 mph90%29.68 "Hg10 mi
11:53 PM
Aug 26
37 °FClear.3 mph86%29.70 "Hg10 mi
10:53 PM37 °FSunny.5 mph86%29.70 "Hg10 mi
9:53 PM39 °FLow clouds.3 mph82%29.71 "Hg10 mi
7:53 PM40 °FOvercast.3 mph80%29.72 "Hg10 mi
6:53 PM40 °FOvercast.3 mph80%29.72 "Hg10 mi
5:53 PM41 °FOvercast.6 mph80%29.73 "Hg10 mi
4:53 PM41 °FOvercast.6 mph80%29.73 "Hg10 mi
3:53 PM41 °FOvercast.6 mph80%29.73 "Hg10 mi
2:53 PM41 °FOvercast.5 mph80%29.74 "Hg10 mi
1:53 PM40 °FOvercast.3 mph80%29.75 "Hg10 mi
12:53 PM40 °FLow clouds.7 mph80%29.75 "Hg10 mi
11:53 AM39 °FLow clouds.6 mph82%29.76 "Hg10 mi
10:53 AM39 °FLow clouds.10 mph86%29.75 "Hg10 mi
9:53 AM39 °FLow clouds.6 mph86%29.76 "Hg9 mi
8:53 AM39 °FLow clouds.7 mph86%29.76 "Hg10 mi
7:53 AM38 °FFog.7 mph93%29.76 "Hg6 mi
Weather by CustomWeather, © 2014

See weather overviewHow to use our weather pages